TimeCST,TemperatureF,Dew PointF,Humidity,Sea Level PressureIn,VisibilityMPH,Wind Direction,Wind SpeedMPH,Gust SpeedMPH,PrecipitationIn,Events,Conditions,WindDirDegrees,DateUTC
12:15 AM,34.2,32.2,92,29.86,10.0,SSE,5.8,-,N/A,,Clear,150,2013-02-24 06:15:00
12:35 AM,34.2,32.2,92,29.86,10.0,SE,5.8,-,N/A,,Clear,140,2013-02-24 06:35:00
12:55 AM,34.2,32.2,92,29.86,10.0,ESE,4.6,-,N/A,,Clear,120,2013-02-24 06:55:00
1:15 AM,33.4,32.0,94,29.85,10.0,SE,5.8,-,N/A,,Clear,130,2013-02-24 07:15:00
1:35 AM,33.1,32.0,96,29.85,10.0,ESE,5.8,-,N/A,,Clear,120,2013-02-24 07:35:00
2:15 AM,33.4,32.0,94,29.84,10.0,SE,5.8,-,N/A,,Clear,140,2013-02-24 08:15:00
2:35 AM,33.4,32.0,94,29.84,10.0,SE,5.8,-,N/A,,Clear,130,2013-02-24 08:35:00
2:55 AM,33.1,32.0,96,29.83,10.0,ESE,5.8,-,N/A,,Clear,120,2013-02-24 08:55:00
3:15 AM,33.1,32.0,96,29.83,10.0,SE,6.9,-,N/A,,Clear,130,2013-02-24 09:15:00
3:35 AM,33.3,31.8,94,29.82,10.0,ESE,5.8,-,N/A,,Clear,120,2013-02-24 09:35:00
3:55 AM,33.1,31.6,94,29.82,10.0,SE,4.6,-,N/A,,Clear,130,2013-02-24 09:55:00
4:15 AM,32.2,31.1,96,29.81,10.0,SE,4.6,-,N/A,,Clear,140,2013-02-24 10:15:00
4:35 AM,32.0,31.1,96,29.81,10.0,Calm,Calm,-,N/A,,Clear,0,2013-02-24 10:35:00
4:55 AM,32.0,30.9,96,29.81,10.0,SSE,4.6,-,N/A,,Clear,150,2013-02-24 10:55:00
5:15 AM,32.0,31.1,96,29.82,10.0,SSE,3.5,-,N/A,,Clear,150,2013-02-24 11:15:00
5:35 AM,32.4,31.1,95,29.82,10.0,SE,5.8,-,N/A,,Clear,140,2013-02-24 11:35:00
5:55 AM,32.9,31.1,93,29.81,10.0,SSE,6.9,-,N/A,,Clear,150,2013-02-24 11:55:00
6:15 AM,33.6,31.3,91,29.81,10.0,SSE,8.1,-,N/A,,Clear,150,2013-02-24 12:15:00
6:35 AM,33.8,31.5,91,29.80,10.0,SE,5.8,-,N/A,,Clear,130,2013-02-24 12:35:00
6:55 AM,34.7,31.6,89,29.80,10.0,SSE,6.9,-,N/A,,Clear,150,2013-02-24 12:55:00
7:15 AM,34.5,31.5,89,29.80,10.0,SSE,9.2,-,N/A,,Clear,150,2013-02-24 13:15:00
7:35 AM,34.5,31.8,90,29.80,10.0,SSE,9.2,-,N/A,,Clear,160,2013-02-24 13:35:00
7:55 AM,35.1,31.8,88,29.81,10.0,SSE,6.9,-,N/A,,Clear,160,2013-02-24 13:55:00
8:15 AM,36.0,32.0,86,29.82,10.0,SSE,5.8,-,N/A,,Clear,160,2013-02-24 14:15:00
8:35 AM,36.3,32.0,84,29.83,10.0,SSE,6.9,-,N/A,,Clear,160,2013-02-24 14:35:00
8:55 AM,37.4,32.5,83,29.83,10.0,SSE,10.4,-,N/A,,Clear,150,2013-02-24 14:55:00
9:15 AM,39.0,33.6,81,29.82,10.0,SSE,11.5,16.1,N/A,,Clear,160,2013-02-24 15:15:00
9:35 AM,40.6,34.7,79,29.81,10.0,SSE,11.5,-,N/A,,Clear,160,2013-02-24 15:35:00
9:55 AM,43.0,35.8,76,29.80,10.0,South,16.1,20.7,N/A,,Clear,170,2013-02-24 15:55:00
10:15 AM,45.0,36.5,72,29.79,10.0,South,15.0,24.2,N/A,,Clear,170,2013-02-24 16:15:00
10:35 AM,46.6,37.6,71,29.79,10.0,South,18.4,26.5,N/A,,Clear,180,2013-02-24 16:35:00
10:55 AM,48.6,39.0,70,29.78,10.0,South,16.1,23.0,N/A,,Clear,170,2013-02-24 16:55:00
11:15 AM,50.7,40.1,67,29.77,10.0,South,19.6,28.8,N/A,,Clear,180,2013-02-24 17:15:00
11:35 AM,53.4,41.2,63,29.77,10.0,South,23.0,28.8,N/A,,Clear,170,2013-02-24 17:35:00
11:55 AM,55.4,41.7,60,29.76,10.0,South,24.2,29.9,N/A,,Clear,180,2013-02-24 17:55:00
12:15 PM,55.4,41.7,60,29.76,10.0,South,23.0,29.9,N/A,,Clear,180,2013-02-24 18:15:00
12:35 PM,56.3,42.8,61,29.75,10.0,South,18.4,28.8,N/A,,Clear,180,2013-02-24 18:35:00
12:55 PM,57.0,43.0,59,29.74,10.0,South,19.6,29.9,N/A,,Clear,190,2013-02-24 18:55:00
1:15 PM,57.7,43.5,59,29.73,10.0,South,18.4,28.8,N/A,,Clear,190,2013-02-24 19:15:00
1:35 PM,59.2,44.6,58,29.73,10.0,South,17.3,21.9,N/A,,Clear,190,2013-02-24 19:35:00
1:55 PM,59.4,44.1,57,29.72,10.0,South,19.6,24.2,N/A,,Clear,180,2013-02-24 19:55:00
2:15 PM,60.1,45.1,58,29.71,10.0,South,16.1,21.9,N/A,,Clear,180,2013-02-24 20:15:00
2:35 PM,60.6,45.1,57,29.71,10.0,South,16.1,19.6,N/A,,Clear,180,2013-02-24 20:35:00
2:55 PM,60.8,45.0,56,29.70,10.0,South,12.7,21.9,N/A,,Clear,170,2013-02-24 20:55:00
3:15 PM,61.5,45.7,56,29.68,10.0,South,19.6,25.3,N/A,,Clear,170,2013-02-24 21:15:00
3:35 PM,62.1,46.4,56,29.68,10.0,South,20.7,26.5,N/A,,Clear,190,2013-02-24 21:35:00
3:55 PM,62.2,45.5,54,29.68,10.0,South,18.4,24.2,N/A,,Clear,180,2013-02-24 21:55:00
4:15 PM,62.6,45.7,54,29.68,10.0,SSE,16.1,23.0,N/A,,Clear,160,2013-02-24 22:15:00
4:35 PM,62.6,45.3,53,29.68,10.0,South,13.8,21.9,N/A,,Scattered Clouds,170,2013-02-24 22:35:00
4:55 PM,62.6,45.1,53,29.68,10.0,SSE,13.8,18.4,N/A,,Mostly Cloudy,160,2013-02-24 22:55:00
5:15 PM,62.2,45.1,54,29.68,10.0,SSE,12.7,17.3,N/A,,Scattered Clouds,160,2013-02-24 23:15:00
5:35 PM,61.7,45.7,56,29.68,10.0,SSE,12.7,19.6,N/A,,Clear,150,2013-02-24 23:35:00
5:55 PM,60.8,45.3,57,29.68,10.0,SSE,10.4,-,N/A,,Clear,160,2013-02-24 23:55:00
6:15 PM,59.9,45.5,59,29.70,10.0,SSE,6.9,-,N/A,,Clear,160,2013-02-25 00:15:00
6:35 PM,59.0,45.5,61,29.71,10.0,Calm,Calm,-,N/A,,Mostly Cloudy,0,2013-02-25 00:35:00
6:55 PM,55.9,46.6,71,29.73,10.0,Calm,Calm,-,N/A,,Overcast,0,2013-02-25 00:55:00
7:15 PM,54.0,47.8,80,29.75,10.0,NNE,3.5,-,N/A,,Overcast,20,2013-02-25 01:15:00
7:35 PM,53.6,47.3,79,29.75,10.0,NNE,5.8,-,N/A,,Overcast,30,2013-02-25 01:35:00
7:55 PM,48.0,42.3,80,29.75,10.0,NNE,13.8,-,N/A,,Overcast,20,2013-02-25 01:55:00
8:15 PM,45.7,41.2,84,29.76,10.0,North,16.1,-,N/A,,Overcast,350,2013-02-25 02:15:00
8:35 PM,43.9,39.2,84,29.75,10.0,NNW,15.0,-,N/A,Thunderstorm,Overcast,340,2013-02-25 02:35:00
8:55 PM,43.2,38.8,85,29.75,10.0,NNW,15.0,-,N/A,,Overcast,340,2013-02-25 02:55:00
9:15 PM,42.4,38.5,86,29.76,10.0,NNW,12.7,-,N/A,Thunderstorm,Overcast,340,2013-02-25 03:15:00
9:35 PM,42.4,38.5,86,29.78,10.0,NNW,11.5,17.3,N/A,,Overcast,330,2013-02-25 03:35:00
9:55 PM,41.9,38.8,89,29.80,10.0,NNW,13.8,18.4,N/A,Rain,Light Rain,330,2013-02-25 03:55:00
10:15 PM,40.1,39.0,96,29.83,7.0,NW,18.4,24.2,0.02,Rain,Light Rain,320,2013-02-25 04:15:00
10:35 PM,39.2,39.2,100,29.79,4.0,North,18.4,21.9,0.08,Rain,Rain,350,2013-02-25 04:35:00
10:55 PM,38.5,38.5,100,29.77,7.0,North,19.6,23.0,0.13,Rain,Light Rain,350,2013-02-25 04:55:00
11:15 PM,38.3,38.3,100,29.79,10.0,NNW,13.8,17.3,N/A,Rain,Light Rain,340,2013-02-25 05:15:00
11:35 PM,38.3,38.3,100,29.78,10.0,NNW,16.1,20.7,N/A,,Overcast,340,2013-02-25 05:35:00
11:55 PM,38.3,38.3,100,29.80,7.0,NNW,10.4,-,0.01,Rain,Light Rain,330,2013-02-25 05:55:00